Location: Saratoga Springs
(43.0831°N, 73.7850°W)
Time: 05:03:00
(UTC-04:00)

Transit 2A Rocket - Visible Passes

Search period start: 17 April 2024 00:00
Search period end: 27 April 2024 00:00
Orbit: 587 x 907 km, 66.7° (Epoch: 17 April)

Date Brightness Start Highest point End Pass type
(mag) Time Alt. Az. Time Alt. Az. Time Alt. Az.
17 Apr 5.2 21:44:46 10° NNW 21:50:23 73° ENE 21:52:08 46° SE visible
17 Apr 7.2 23:28:29 10° WNW 23:31:58 19° W 23:31:58 19° W visible
18 Apr 5.7 21:00:59 10° NNW 21:06:20 45° NE 21:09:41 23° ESE visible
18 Apr 6.4 22:43:44 10° NW 22:48:44 32° WSW 22:49:31 31° SW visible
19 Apr 6.3 20:17:19 10° NNW 20:22:10 29° NE 20:27:15 10° ESE visible
19 Apr 5.7 21:59:25 10° NW 22:04:56 54° WSW 22:07:06 36° S visible
20 Apr 5.2 21:15:22 10° NNW 21:21:03 89° WSW 21:24:45 24° SSE visible
20 Apr 7.4 22:59:51 10° WNW 23:02:53 15° WSW 23:04:35 13° WSW visible
21 Apr 5.5 20:31:29 10° NNW 20:37:02 57° NE 20:42:28 12° SE visible
21 Apr 6.9 22:14:38 10° NW 22:19:15 25° WSW 22:22:18 17° SSW visible
22 Apr 6.2 21:30:09 10° NW 21:35:30 42° WSW 21:40:04 15° S visible
23 Apr 5.5 20:45:58 10° NW 20:51:38 71° WSW 20:57:37 10° SSE visible
23 Apr 7.8 22:32:01 10° W 22:33:17 11° WSW 22:34:34 10° WSW visible
24 Apr 7.4 21:45:39 10° WNW 21:49:42 20° WSW 21:53:51 10° SSW visible
25 Apr 6.8 21:00:54 10° NW 21:05:59 33° WSW 21:11:17 10° S visible
26 Apr 6.0 20:16:34 10° NW 20:22:10 56° WSW 20:28:01 10° SSE visible
